Location: Round Knob
(37.2473°N, 88.7376°W)
Time: 12:25:09
(UTC+00:00)

Cosmos 1302 Rocket - Pass Details

Date: 29 October 2020
Orbit: 756 x 776 km, 74.0° (Epoch: 04 December)

Event Time Altitude Azimuth Distance (km) Brightness Sun altitude
Rises 23:33:29 0° 203° (SSW) 3,219 7.8 -7.3°
Reaches altitude 10° 23:35:51 10° 206° (SSW) 2,300 7.0 -7.8°
Maximum altitude 23:41:03 68° 289° (WNW) 832 4.4 -8.8°
Drops below altitude 10° 23:46:19 10° 13° (NNE) 2,326 6.3 -9.8°
Sets 23:48:44 0° 16° (NNE) 3,259 7.0 -10.3°
